Tiempo cada hora Daba Dora

Hoy, 18 Junio, Viernes

Tiempo Temperatura Precipitaciones Viento Presión Humedad
00:00 +32°C° 0 mm 2 mps 680 mmHg 29%
01:00 +32°C° 0 mm 1 mps 680 mmHg 30%
02:00 +31°C° 0 mm 1 mps 680 mmHg 31%
03:00 +30°C° 0 mm 1 mps 680 mmHg 32%
04:00 +30°C° 0 mm 1 mps 680 mmHg 32%
05:00 +30°C° 0 mm 1 mps 680 mmHg 32%
06:00 +29°C° 0 mm 1 mps 680 mmHg 31%
07:00 +31°C° 0 mm 1 mps 681 mmHg 27%
08:00 +32°C° 0 mm 1 mps 681 mmHg 24%
09:00 +34°C° 0 mm 1 mps 682 mmHg 20%
10:00 +36°C° 0 mm 2 mps 682 mmHg 18%
11:00 +38°C° 0 mm 2 mps 681 mmHg 15%
12:00 +39°C° 0 mm 2 mps 681 mmHg 13%
13:00 +40°C° 0 mm 3 mps 681 mmHg 12%
14:00 +42°C° 0 mm 3 mps 680 mmHg 11%
15:00 +43°C° 0 mm 4 mps 680 mmHg 10%
16:00 +42°C° 0 mm 4 mps 680 mmHg 10%
17:00 +42°C° 0 mm 4 mps 680 mmHg 11%
18:00 +41°C° 0 mm 4 mps 680 mmHg 11%
19:00 +40°C° 0 mm 4 mps 680 mmHg 14%
20:00 +38°C° 0 mm 4 mps 680 mmHg 18%
21:00 +36°C° 0 mm 3 mps 681 mmHg 21%
22:00 +35°C° 0 mm 2 mps 681 mmHg 27%
23:00 +34°C° 0 mm 2 mps 681 mmHg 33%

Mañana, 19 Junio, Sábado

Tiempo Temperatura Precipitaciones Viento Presión Humedad
00:00 +31°C° 0 mm 1 mps 681 mmHg 39%
01:00 +31°C° 0 mm 1 mps 680 mmHg 40%
02:00 +31°C° 0 mm 1 mps 680 mmHg 40%
03:00 +31°C° 0 mm 1 mps 680 mmHg 40%
04:00 +30°C° 0 mm 1 mps 680 mmHg 40%
05:00 +30°C° 0 mm 1 mps 680 mmHg 40%
06:00 +28°C° 0 mm 0 mps 681 mmHg 39%
07:00 +31°C° 0 mm 1 mps 681 mmHg 35%
08:00 +32°C° 0 mm 1 mps 682 mmHg 31%
09:00 +34°C° 0 mm 1 mps 682 mmHg 28%
10:00 +35°C° 0 mm 1 mps 682 mmHg 24%
11:00 +38°C° 0 mm 2 mps 682 mmHg 20%
12:00 +39°C° 0 mm 2 mps 682 mmHg 16%
13:00 +40°C° 0 mm 3 mps 681 mmHg 14%
14:00 +42°C° 0 mm 3 mps 680 mmHg 12%
15:00 +43°C° 0 mm 3 mps 680 mmHg 10%
16:00 +43°C° 0 mm 3 mps 680 mmHg 10%
17:00 +42°C° 0 mm 4 mps 679 mmHg 10%
18:00 +42°C° 0 mm 4 mps 679 mmHg 10%
19:00 +40°C° 0 mm 4 mps 679 mmHg 14%
20:00 +38°C° 0 mm 4 mps 680 mmHg 18%
21:00 +36°C° 0 mm 4 mps 680 mmHg 23%
22:00 +35°C° 0 mm 3 mps 680 mmHg 26%
23:00 +34°C° 0 mm 2 mps 680 mmHg 29%

Pasado mañana, 20 Junio, Domingo

Tiempo Temperatura Precipitaciones Viento Presión Humedad
00:00 +32°C° 0 mm 1 mps 681 mmHg 32%
01:00 +32°C° 0 mm 1 mps 680 mmHg 32%
02:00 +31°C° 0 mm 1 mps 680 mmHg 33%
03:00 +31°C° 0 mm 2 mps 680 mmHg 33%
04:00 +31°C° 0 mm 1 mps 680 mmHg 33%
05:00 +30°C° 0 mm 1 mps 680 mmHg 33%
06:00 +30°C° 0 mm 1 mps 680 mmHg 34%
07:00 +31°C° 0 mm 2 mps 681 mmHg 29%
08:00 +34°C° 0 mm 2 mps 681 mmHg 25%
09:00 +35°C° 0 mm 3 mps 682 mmHg 20%
10:00 +37°C° 0 mm 4 mps 682 mmHg 18%
11:00 +39°C° 0 mm 5 mps 682 mmHg 16%
12:00 +41°C° 0 mm 6 mps 682 mmHg 13%
13:00 +41°C° 0 mm 6 mps 681 mmHg 13%
14:00 +41°C° 0 mm 6 mps 680 mmHg 14%
15:00 +43°C° 0 mm 7 mps 680 mmHg 14%
16:00 +41°C° 0 mm 7 mps 680 mmHg 14%
17:00 +41°C° 0 mm 8 mps 679 mmHg 13%
18:00 +41°C° 0 mm 8 mps 679 mmHg 13%
19:00 +39°C° 0 mm 7 mps 679 mmHg 15%
20:00 +37°C° 0 mm 5 mps 680 mmHg 16%
21:00 +35°C° 0 mm 4 mps 680 mmHg 18%
22:00 +34°C° 0 mm 3 mps 680 mmHg 21%
23:00 +33°C° 0 mm 3 mps 680 mmHg 24%

21 Junio, Lunes

Tiempo Temperatura Precipitaciones Viento Presión Humedad
00:00 +31°C° 0 mm 2 mps 680 mmHg 27%
01:00 +31°C° 0 mm 2 mps 680 mmHg 28%
02:00 +31°C° 0 mm 2 mps 680 mmHg 30%
03:00 +30°C° 0 mm 1 mps 680 mmHg 31%
04:00 +30°C° 0 mm 1 mps 680 mmHg 32%
05:00 +30°C° 0 mm 2 mps 680 mmHg 33%
06:00 +29°C° 0 mm 2 mps 680 mmHg 34%
07:00 +30°C° 0 mm 2 mps 681 mmHg 31%
08:00 +32°C° 0 mm 2 mps 681 mmHg 28%
09:00 +34°C° 0 mm 2 mps 682 mmHg 25%
10:00 +35°C° 0 mm 2 mps 682 mmHg 23%
11:00 +37°C° 0 mm 2 mps 681 mmHg 21%
12:00 +38°C° 0 mm 2 mps 681 mmHg 19%
13:00 +39°C° 0 mm 3 mps 681 mmHg 18%
14:00 +41°C° 0 mm 4 mps 680 mmHg 16%
15:00 +42°C° 0 mm 5 mps 679 mmHg 15%
16:00 +42°C° 0 mm 5 mps 679 mmHg 15%
17:00 +41°C° 0 mm 5 mps 679 mmHg 15%
18:00 +41°C° 0 mm 5 mps 679 mmHg 15%
19:00 +39°C° 0 mm 5 mps 679 mmHg 19%
20:00 +36°C° 0 mm 4 mps 680 mmHg 23%
21:00 +34°C° 0 mm 4 mps 680 mmHg 27%
22:00 +34°C° 0 mm 3 mps 680 mmHg 29%
23:00 +33°C° 0 mm 3 mps 680 mmHg 30%

22 Junio, Martes

Tiempo Temperatura Precipitaciones Viento Presión Humedad
00:00 +31°C° 0 mm 2 mps 680 mmHg 32%
01:00 +31°C° 0 mm 2 mps 680 mmHg 32%
02:00 +31°C° 0 mm 1 mps 680 mmHg 32%
03:00 +30°C° 0 mm 1 mps 679 mmHg 32%
04:00 +30°C° 0 mm 1 mps 680 mmHg 33%
05:00 +30°C° 0 mm 1 mps 680 mmHg 34%
06:00 +29°C° 0 mm 1 mps 680 mmHg 35%
07:00 +31°C° 0 mm 1 mps 680 mmHg 31%
08:00 +32°C° 0 mm 1 mps 681 mmHg 28%
09:00 +34°C° 0 mm 2 mps 682 mmHg 24%
10:00 +36°C° 0 mm 3 mps 681 mmHg 22%
11:00 +38°C° 0 mm 4 mps 681 mmHg 19%
12:00 +40°C° 0 mm 5 mps 681 mmHg 16%
13:00 +41°C° 0 mm 5 mps 681 mmHg 15%
14:00 +41°C° 0 mm 5 mps 680 mmHg 15%
15:00 +42°C° 0 mm 5 mps 679 mmHg 14%
16:00 +41°C° 0 mm 6 mps 679 mmHg 15%
17:00 +41°C° 0 mm 6 mps 679 mmHg 15%
18:00 +40°C° 0 mm 6 mps 679 mmHg 15%
19:00 +39°C° 0 mm 5 mps 679 mmHg 19%
20:00 +36°C° 0 mm 4 mps 680 mmHg 22%
21:00 +34°C° 0 mm 3 mps 680 mmHg 26%
22:00 +34°C° 0 mm 3 mps 680 mmHg 27%
23:00 +32°C° 0 mm 2 mps 680 mmHg 27%

23 Junio, Miércoles

Tiempo Temperatura Precipitaciones Viento Presión Humedad
00:00 +31°C° 0 mm 2 mps 680 mmHg 28%
01:00 +31°C° 0 mm 2 mps 680 mmHg 28%
02:00 +31°C° 0 mm 1 mps 680 mmHg 28%
03:00 +31°C° 0 mm 1 mps 679 mmHg 28%
04:00 +30°C° 0 mm 1 mps 680 mmHg 29%
05:00 +30°C° 0 mm 1 mps 680 mmHg 30%
06:00 +29°C° 0 mm 1 mps 680 mmHg 31%
07:00 +31°C° 0 mm 1 mps 680 mmHg 29%
08:00 +32°C° 0 mm 1 mps 681 mmHg 26%
09:00 +33°C° 0 mm 1 mps 682 mmHg 24%
10:00 +36°C° 0 mm 3 mps 681 mmHg 20%
11:00 +39°C° 0 mm 5 mps 681 mmHg 16%
12:00 +41°C° 0 mm 7 mps 681 mmHg 12%
13:00 +43°C° 0 mm 7 mps 681 mmHg 12%
14:00 +43°C° 0 mm 7 mps 680 mmHg 11%
15:00 +42°C° 0 mm 6 mps 680 mmHg 11%
16:00 +42°C° 0 mm 6 mps 679 mmHg 11%
17:00 +42°C° 0 mm 5 mps 679 mmHg 11%
18:00 +41°C° 0 mm 4 mps 679 mmHg 11%
19:00 +38°C° 0 mm 4 mps 679 mmHg 16%
20:00 +36°C° 0 mm 3 mps 679 mmHg 22%
21:00 +34°C° 0 mm 3 mps 679 mmHg 27%
22:00 +33°C° 0 mm 3 mps 679 mmHg 30%
23:00 +31°C° 0 mm 3 mps 680 mmHg 33%
Mostrar más

Necesitamos Su Consentimiento

Meteoprog y nuestros Proveedores de Servicios pueden almacenar y acceder a sus datos personales como cookies, identificadores de dispositivo u otras tecnologías similares de su dispositivo y procesar dichos datos para personalizar contenido y anuncios, además de ofrecer funciones de redes sociales y analizar el tráfico.

  • Almacenar y/o acceder a información en su dispositivo

    Se puede almacenar o acceder a cookies, identificadores de dispositivo u otra información de su dispositivo para los fines anteriormente indicados.

  • Anuncios y contenido personalizados, medición de anuncios y contenido, percepciones del público, y desarrollo de productos

    Los anuncios y el contenido pueden personalizarse en base a su perfil. Se pueden añadir más datos para personalizar mejor los anuncios y contenidos. Se puede medir el rendimiento de los anuncios y contenidos. Se puede obtener la percepción sobre el público que ha visto los anuncios y contenidos. Dichos datos pueden usarse para desarrollar o mejorar la experiencia del usuario, sistemas y software.

Al hacer clic en ‘Estoy De Acuerdo’ usted permitirá el uso de las cookies, identificadores de dispositivo, balizas web u otras tecnologías similares indicadas. Su configuración puede cambiarse desde el navegador de su dispositivo.

Para ciertos fines, los intereses legítimos pueden ser considerados por encima del consentimiento. Puede leer más sobre ello en nuestra Política de Privacidad y Cookies.